Flag for Canada Weather past 2 weeks in Timmins, Ontario, Canada

Now
50 °F

Overcast.


Feels Like: 47 °F
Forecast: 49 / 67 °F
Wind: 8 mph from Northwest

Location: Timmins

Current Time: Jul 23, 2014 at 5:58:17 AM

Latest Report: Jul 23, 2014 at 5:00 AM


Visibility: 15 mi

Pressure: 30.00 "Hg

Humidity: 94%

Dew point: 48 °F

Location of TimminsLocation

Historic Weather in Timmins — Graph

°F

Timmins temperature yesterday

Maximum temperature yesterday: 79 °F (at 12:00 PM)
Minimum temperature yesterday: 54 °F (at 11:00 PM)
Average temperature yesterday: 68 °F

Past Weeks' High & Low Weather Summary

 TemperatureHumidityPressure
High81 °F (Jul 11, 4:00 PM)100% (Jul 8, 4:00 AM)30.14 "Hg (Jul 8, 4:00 AM)
Low39 °F (Jul 10, 5:00 AM)37% (Jul 18, 4:00 PM)29.44 "Hg (Jul 8, 4:00 AM)
Average61 °F78%29.88 "Hg
* Reported Jul 8 4:00 AM — Jul 23 4:00 AM, Timmins, Weather by CustomWeather, © 2014

Note: Actual official high and low records may vary slightly from our data, if they occured in-between our weather recording intervals... More about our weather records

Advertising

Timmins weather history for previous 24 hours

 ConditionsComfort  
Time TempWeatherWind HumidityBarometerVisibility
4:00 AM
Jul 23
52 °FMostly cloudy.12 mph94%29.98 "Hg15 mi
2:00 AM52 °FSprinkles. Overcast.12 mph94%29.94 "Hg8 mi
1:00 AM52 °FSprinkles. Fog.13 mph94%29.91 "Hg5 mi
12:00 AM52 °FSprinkles. Fog.16 mph94%29.88 "Hg5 mi
11:00 PM
Jul 22
54 °FSprinkles. Fog.16 mph94%29.82 "Hg5 mi
10:00 PM55 °FSprinkles. Fog.20 mph94%29.78 "Hg3 mi
9:00 PM63 °FSprinkles. Fog.22 mph88%29.69 "Hg3 mi
8:00 PM68 °FSprinkles. Fog.10 mph94%29.66 "Hg5 mi
12:00 PM79 °FPartly sunny.14 mph61%29.81 "Hg15 mi
11:00 AM77 °FPartly sunny.7 mph65%29.88 "Hg15 mi
10:00 AM75 °FPartly sunny.5 mph69%29.91 "Hg15 mi
9:00 AM72 °FPartly sunny.6 mph78%29.93 "Hg10 mi
8:00 AM70 °FBroken clouds.7 mph78%29.93 "Hg10 mi
7:00 AM68 °FBroken clouds.6 mph88%29.94 "Hg10 mi
6:00 AM64 °FPassing clouds.6 mph94%29.93 "Hg10 mi
5:00 AM66 °FPassing clouds.5 mph88%29.94 "Hg15 mi
Weather by CustomWeather, © 2014

See weather overviewHow to use our weather pages